Date String (YYYY-MM-DD hh:mm:ss) UTC,Instrument flags,absolute air pressure of the measurement (hPa),sample flow rate (lpm),inlet stack bypass flow (lpm),air temperature of the measurement (°C),ambient temperature measured by the external sensor (°C),aerosol sample conditioner tube jacket temperature (°C),OPC LED temperature (°C),internal box temperature (°C),relative humidity of the measurement (%),span deviation,mass concentration of particles derived from Lorenz-Mie calculation of OPC scattering (μg/m³),mass concentration of particles derived from Lorenz-Mie calculation of OPC scattering (μg/m³),mass concentration of particles derived from Lorenz-Mie calculation of OPC scattering (μg/m³)
DateTimeUTC,F1_M11,P_M11,Q1_M11,Q2_M11,T1_M11,T2_M11,T3_M11,T4_M11,T5_M11,U1_M11,ZSPAN_M11,X0_M11,X2_M11,X1_M11
2024-04-25 05:00:00,SystemResetWarning,0824.9,5.00,000.00,025.7,025.1,000.0,033.9,027.6,021.6,0000.0,0009.70,0004.52,0003.58
2024-04-25 05:01:00,SystemResetWarning,0824.8,5.00,000.00,025.7,025.1,000.0,033.9,027.6,021.4,0000.0,0009.05,0004.47,0003.56
2024-04-25 05:02:00,SystemResetWarning,0824.8,5.00,000.00,025.8,025.1,000.0,034.0,027.6,021.3,0000.0,0009.47,0004.43,0003.54
2024-04-25 05:03:00,SystemResetWarning,0824.8,5.01,000.00,025.8,025.2,000.0,034.0,027.6,021.2,0000.0,0009.92,0004.43,0003.51
2024-04-25 05:04:00,SystemResetWarning,0824.8,5.00,000.00,025.8,025.2,000.0,034.0,027.7,021.2,0000.0,0010.02,0004.37,0003.49
2024-04-25 05:05:00,SystemResetWarning,0824.8,4.99,000.00,025.8,025.2,000.0,034.0,027.7,021.1,0000.0,0009.96,0004.32,0003.46
2024-04-25 05:06:00,SystemResetWarning,0824.8,5.00,000.00,025.9,025.2,000.0,034.1,027.7,021.0,0000.0,0010.33,0004.33,0003.43
2024-04-25 05:07:00,SystemResetWarning,0824.8,5.00,000.00,025.9,025.3,000.0,034.1,027.7,020.9,0000.0,0010.59,0004.26,0003.40
2024-04-25 05:08:00,SystemResetWarning,0824.8,5.00,000.00,025.9,025.3,000.0,034.1,027.8,020.8,0000.0,0010.60,0004.22,0003.38
2024-04-25 05:09:00,SystemResetWarning,0824.8,5.01,000.00,025.9,025.3,000.0,034.1,027.8,020.7,0000.0,0010.66,0004.16,0003.34
2024-04-25 05:10:00,SystemResetWarning,0824.9,5.01,000.00,025.9,025.3,000.0,034.2,027.8,020.7,0000.0,0010.83,0004.09,0003.32
2024-04-25 05:11:00,SystemResetWarning,0824.8,5.01,000.00,025.9,025.3,000.0,034.2,027.8,020.8,0000.0,0011.28,0004.04,0003.30
2024-04-25 05:12:00,SystemResetWarning,0824.9,4.99,000.00,026.0,025.3,000.0,034.2,027.8,020.8,0000.0,0011.20,0004.04,0003.28
2024-04-25 05:13:00,SystemResetWarning,0824.9,5.00,000.00,026.0,025.3,000.0,034.2,027.8,020.7,0000.0,0010.75,0004.04,0003.27
2024-04-25 05:14:00,SystemResetWarning,0824.9,5.00,000.00,026.0,025.4,000.0,034.2,027.9,020.8,0000.0,0010.34,0004.02,0003.26
2024-04-25 05:15:00,SystemResetWarning,0824.9,4.99,000.00,026.0,025.4,000.0,034.3,027.9,020.7,0000.0,0009.84,0003.98,0003.25
2024-04-25 05:16:00,SystemResetWarning,0824.9,4.99,000.00,026.0,025.4,000.0,034.3,027.9,020.7,0000.0,0009.81,0003.96,0003.25
2024-04-25 05:17:00,SystemResetWarning,0824.9,5.00,000.00,026.1,025.4,000.0,034.3,027.9,020.7,0000.0,0011.67,0003.97,0003.26
2024-04-25 05:18:00,SystemResetWarning,0824.9,4.99,000.00,026.1,025.2,000.0,034.3,027.7,020.5,0000.0,0011.43,0003.97,0003.26
2024-04-25 05:19:00,SystemResetWarning,0824.9,5.01,000.00,025.7,023.1,000.0,034.4,026.6,020.8,0000.0,0011.41,0003.98,0003.27
2024-04-25 05:20:00,SystemResetWarning,0824.9,5.01,000.00,025.3,022.1,000.0,034.4,025.9,021.3,0000.0,0012.17,0004.02,0003.28
2024-04-25 05:21:00,SystemResetWarning,0824.9,5.00,000.00,025.1,022.3,000.0,034.2,025.9,021.5,0000.0,0013.14,0004.03,0003.29
2024-04-25 05:22:00,SystemResetWarning,0824.9,5.00,000.00,025.1,022.6,000.0,034.1,026.2,021.6,0000.0,0013.17,0004.05,0003.30
2024-04-25 05:23:00,SystemResetWarning,0824.9,5.00,000.00,025.1,023.0,000.0,034.0,026.5,021.7,0000.0,0013.12,0004.07,0003.31
2024-04-25 05:24:00,SystemResetWarning,0824.9,5.00,000.00,025.1,023.3,000.0,033.9,026.7,021.8,0000.0,0013.35,0004.07,0003.32
2024-04-25 05:25:00,SystemResetWarning,0824.9,4.99,000.00,025.1,023.6,000.0,033.9,026.8,021.6,0000.0,0013.70,0004.11,0003.35
2024-04-25 05:26:00,SystemResetWarning,0824.9,5.00,000.00,025.2,023.8,000.0,033.8,026.9,021.4,0000.0,0013.79,0004.20,0003.38
2024-04-25 05:27:00,SystemResetWarning,0824.9,5.00,000.00,025.2,024.0,000.0,033.8,027.0,021.8,0000.0,0014.09,0004.32,0003.41
2024-04-25 05:28:00,SystemResetWarning,0824.9,5.00,000.00,025.3,024.2,000.0,033.8,027.1,022.1,0000.0,0013.02,0004.36,0003.43
2024-04-25 05:29:00,SystemResetWarning,0825.0,5.00,000.00,025.3,024.3,000.0,033.8,027.2,021.8,0000.0,0012.96,0004.38,0003.45
2024-04-25 05:30:00,SystemResetWarning,0825.0,5.00,000.00,025.3,024.4,000.0,033.8,027.2,021.6,0000.0,0013.80,0004.43,0003.47
2024-04-25 05:31:00,SystemResetWarning,0825.0,5.00,000.00,025.4,024.5,000.0,033.8,027.2,021.4,0000.0,0013.95,0004.46,0003.50
2024-04-25 05:32:00,SystemResetWarning,0824.9,5.00,000.00,025.4,024.6,000.0,033.8,027.3,021.7,0000.0,0014.03,0004.57,0003.56
2024-04-25 05:33:00,SystemResetWarning,0824.9,5.00,000.00,025.5,024.7,000.0,033.8,027.3,021.5,0000.0,0014.47,0004.62,0003.60
2024-04-25 05:34:00,SystemResetWarning,0824.9,5.00,000.00,025.5,024.8,000.0,033.8,027.4,021.3,0000.0,0015.20,0004.73,0003.69
2024-04-25 05:35:00,SystemResetWarning,0824.9,5.00,000.00,025.5,024.9,000.0,033.9,027.4,021.1,0000.0,0015.16,0004.80,0003.76
2024-04-25 05:36:00,SystemResetWarning,0824.8,5.00,000.00,025.6,024.9,000.0,033.9,027.5,021.1,0000.0,0014.89,0004.88,0003.82
2024-04-25 05:37:00,SystemResetWarning,0824.8,5.00,000.00,025.6,025.0,000.0,033.9,027.5,021.1,0000.0,0014.92,0004.92,0003.88
2024-04-25 05:38:00,SystemResetWarning,0824.7,5.00,000.00,025.6,025.0,000.0,033.9,027.5,020.9,0000.0,0015.66,0004.96,0003.94
2024-04-25 05:39:00,SystemResetWarning,0824.8,5.00,000.00,025.7,025.1,000.0,033.9,027.6,020.8,0000.0,0015.69,0005.04,0004.00
2024-04-25 05:40:00,SystemResetWarning,0824.7,5.00,000.00,025.7,025.2,000.0,034.0,027.6,020.6,0000.0,0016.78,0005.14,0004.06
2024-04-25 05:41:00,SystemResetWarning,0824.7,5.00,000.00,025.8,025.2,000.0,034.0,027.7,020.4,0000.0,0016.40,0005.17,0004.11
2024-04-25 05:42:00,SystemResetWarning,0824.7,5.00,000.00,025.8,025.2,000.0,034.0,027.7,020.3,0000.0,0015.94,0005.24,0004.16
2024-04-25 05:43:00,SystemResetWarning,0824.7,5.00,000.00,025.8,025.3,000.0,034.1,027.8,020.1,0000.0,0015.61,0005.21,0004.16
2024-04-25 05:44:00,SystemResetWarning,0824.7,5.00,000.00,025.9,025.3,000.0,034.1,027.8,019.9,0000.0,0015.58,0005.27,0004.19
2024-04-25 05:45:00,SystemResetWarning,0824.7,5.00,000.00,025.9,025.4,000.0,034.1,027.8,019.7,0000.0,0015.76,0005.23,0004.16
2024-04-25 05:46:00,SystemResetWarning,0824.8,5.00,000.00,025.9,025.4,000.0,034.1,027.8,019.2,0000.0,0015.83,0005.18,0004.12
2024-04-25 05:47:00,SystemResetWarning,0824.7,5.01,000.00,026.0,025.4,000.0,034.2,027.9,019.5,0000.0,0016.00,0005.08,0004.05
2024-04-25 05:48:00,SystemResetWarning,0824.7,5.00,000.00,026.0,025.4,000.0,034.2,027.9,019.7,0000.0,0016.13,0005.03,0004.00
2024-04-25 05:49:00,SystemResetWarning,0824.7,5.00,000.00,026.0,025.4,000.0,034.2,027.9,020.1,0000.0,0015.47,0005.01,0003.96
2024-04-25 05:50:00,SystemResetWarning,0824.7,5.00,000.00,026.0,025.4,000.0,034.3,027.9,020.1,0000.0,0015.42,0004.99,0003.94
2024-04-25 05:51:00,SystemResetWarning,0824.7,4.99,000.00,026.0,025.4,000.0,034.3,027.9,020.3,0000.0,0014.74,0004.97,0003.93
2024-04-25 05:52:00,SystemResetWarning,0824.7,5.00,000.00,026.1,025.4,000.0,034.3,027.9,021.1,0000.0,0015.76,0004.98,0003.92
2024-04-25 05:53:00,SystemResetWarning,0824.7,4.99,000.00,026.1,025.4,000.0,034.3,027.9,020.8,0000.0,0016.67,0005.01,0003.95
2024-04-25 05:54:00,SystemResetWarning,0824.5,5.00,000.00,026.1,025.4,000.0,034.3,027.9,020.6,0000.0,0015.94,0005.04,0003.96
2024-04-25 05:55:00,SystemResetWarning,0824.4,5.00,000.00,026.1,025.5,000.0,034.4,027.9,021.0,0000.0,0015.84,0005.07,0003.98
2024-04-25 05:56:00,SystemResetWarning,0824.4,5.00,000.00,026.1,025.5,000.0,034.4,028.0,021.2,0000.0,0016.18,0005.09,0004.01
2024-04-25 05:57:00,SystemResetWarning,0824.4,5.01,000.00,026.2,025.5,000.0,034.4,028.0,021.2,0000.0,0016.44,0005.15,0004.04
2024-04-25 05:58:00,SystemResetWarning,0824.4,5.00,000.00,026.2,025.5,000.0,034.4,028.0,020.9,0000.0,0016.70,0005.27,0004.12
2024-04-25 05:59:00,SystemResetWarning,0824.5,5.01,000.00,026.2,025.5,000.0,034.5,028.0,021.0,0000.0,0016.70,0005.32,0004.16
